Simultaneous Nadir Overpasses (SNOs) Predictions

Prediction of SNOs between FY3D and NOAA-19 Satellite Orbit:

Table of predicted SNOs for the next 14.0 days since TLE Epoch: 9/24/2022
Index Date (FY3D) Time (FY3D) Lat,Lon (FY3D) SZA (FY3D ) Date (NOAA-19) Time (NOAA-19) Lat,Lon (NOAA-19) SZA (NOAA-19 ) Distance(km) Time Diff (sec)
1 10/01/2022 01:10:29 77.11, 148.35 80.42 10/01/2022 01:09:16 77.09, 147.58 80.45 19.33 73
2 10/01/2022 02:01:17 -77.21, -44.76 99.46 10/01/2022 02:00:12 -77.18, -44.75 99.48 2.84 65
3 10/01/2022 02:52:02 77.18, 122.66 80.53 10/01/2022 02:51:13 77.20, 122.61 80.56 2.68 49
4 10/01/2022 03:42:48 -77.19, -70.08 99.45 10/01/2022 03:42:11 -77.21, -70.11 99.43 1.88 37
5 10/01/2022 04:33:34 77.21, 97.14 80.59 10/01/2022 04:33:13 77.19, 97.06 80.58 3.00 21
6 10/01/2022 05:24:20 -77.22, -95.60 99.39 10/01/2022 05:24:11 -77.20, -95.66 99.41 3.26 9
7 10/01/2022 06:15:06 77.24, 71.63 80.66 10/01/2022 06:15:12 77.22, 71.71 80.63 3.00 6
8 10/01/2022 07:05:51 -77.21,-120.93 99.37 10/01/2022 07:06:10 -77.23,-121.02 99.36 2.81 19
9 10/01/2022 07:56:37 77.23, 46.30 80.67 10/01/2022 07:57:11 77.25, 46.35 80.68 2.72 34
10 10/01/2022 08:47:23 -77.24,-146.44 99.31 10/01/2022 08:48:09 -77.26,-146.37 99.31 2.29 46
11 10/01/2022 09:38:09 77.26, 20.78 80.73 10/01/2022 09:39:11 77.24, 20.80 80.70 2.28 62
12 10/01/2022 10:28:55 -77.27,-171.96 99.25 10/01/2022 10:30:09 -77.25,-171.92 99.29 3.18 74



Historial Predications of SNOs between FY3D and NOAA-19
